This is the latest recevied weather packets stored in our database for station/object KC4KQE. If no packets are shown the sender has not sent any weather packets the latest 1 day(s).
| Time | Temp. | Humidity | Pressure | Rain* | Wind** | Luminosity | Snow |
|---|---|---|---|---|---|---|---|
| 1777976656 | 16.11° C | 83% | 1012.4 hPa | 0 mm | 1.79 m/s, 110° | 0 W/m² | - |
| 1777976356 | 16.11° C | 83% | 1012.3 hPa | 0 mm | 0.89 m/s, 110° | 0 W/m² | - |
| 1777976059 | 16.11° C | 82% | 1012.4 hPa | 0.25 mm | 1.34 m/s, 110° | 0 W/m² | - |
| 1777975756 | 16.11° C | 83% | 1012.4 hPa | 0.25 mm | 1.79 m/s, 110° | 0 W/m² | - |
| 1777975456 | 16.11° C | 83% | 1012.4 hPa | 0.25 mm | 1.79 m/s, 110° | 0 W/m² | - |
| 1777975156 | 16.11° C | 83% | 1012.4 hPa | 0.25 mm | 1.79 m/s, 110° | 0 W/m² | - |
| 1777974856 | 16.11° C | 84% | 1012.4 hPa | 0.51 mm | 1.79 m/s, 110° | 0 W/m² | - |
| 1777974556 | 16.11° C | 84% | 1012.3 hPa | 0.51 mm | 2.24 m/s, 110° | 0 W/m² | - |
| 1777974256 | 16.11° C | 84% | 1012.4 hPa | 0.76 mm | 2.24 m/s, 110° | 0 W/m² | - |
| 1777973956 | 16.11° C | 85% | 1012.5 hPa | 1.02 mm | 4.02 m/s, 110° | 0 W/m² | - |
| 1777973656 | 15.56° C | 85% | 1012.6 hPa | 1.02 mm | 3.58 m/s, 110° | 0 W/m² | - |
| 1777973356 | 15.56° C | 86% | 1012.7 hPa | 1.02 mm | 3.58 m/s, 110° | 0 W/m² | - |
| 1777973056 | 15.56° C | 86% | 1012.7 hPa | 1.27 mm | 0.89 m/s, 110° | 0 W/m² | - |
| 1777972758 | 15.56° C | 86% | 1013 hPa | 1.27 mm | 3.13 m/s, 110° | 0 W/m² | - |
| 1777972456 | 15.56° C | 86% | 1013.1 hPa | 1.52 mm | 1.34 m/s, 110° | 0 W/m² | - |
| 1777972156 | 15.56° C | 87% | 1013 hPa | 1.52 mm | 2.24 m/s, 110° | 0 W/m² | - |
| 1777971856 | 15.56° C | 86% | 1013.1 hPa | 1.78 mm | 1.79 m/s, 110° | 0 W/m² | - |
| 1777971556 | 15.56° C | 86% | 1013.3 hPa | 2.03 mm | 0.89 m/s, 110° | 0 W/m² | - |
| 1777971256 | 15° C | 86% | 1013.5 hPa | 1.78 mm | 0.89 m/s, 110° | 0 W/m² | - |
| 1777970957 | 15° C | 86% | 1013.5 hPa | 1.78 mm | 2.24 m/s, 110° | 0 W/m² | - |
| 1777970656 | 15° C | 85% | 1013.4 hPa | 1.52 mm | 2.24 m/s, 110° | 0 W/m² | - |
| 1777970357 | 15.56° C | 84% | 1013.5 hPa | 1.27 mm | 3.13 m/s, 110° | 0 W/m² | - |
| 1777970056 | 15.56° C | 83% | 1013.7 hPa | 1.27 mm | 1.34 m/s, 110° | 0 W/m² | - |
| 1777969756 | 15.56° C | 82% | 1013.6 hPa | 1.02 mm | 1.34 m/s, 110° | 0 W/m² | - |
| 1777969456 | 15.56° C | 81% | 1013.8 hPa | 1.02 mm | 1.34 m/s, 110° | 0 W/m² | - |
* Rain latest hour (hover to see other rain measurements)
** Current wind speed in m/s (hover to see current wind gust speed)